Location: ?????
(37.7324°N, 23.9257°E)
Time: 08:26:13
(UTC+00:00)

USA 238 - Pass Details

Date: 29 November 2020
Orbit: 997 x 1215 km, 63.4° (Epoch: 11 January)

Event Time Altitude Azimuth Distance (km) Brightness Sun altitude
Exits shadow 02:58:26 58° 262° (W) 1,358 3.8 -27.3°
Maximum altitude 02:58:58 60° 243° (WSW) 1,345 3.9 -27.2°
Drops below altitude 10° 03:06:23 10° 166° (SSE) 3,145 6.4 -25.7°
Sets 03:09:12 0° 162° (SSE) 4,114 7.1 -25.2°
